DW0148 Weather Reports


Display with metric or nautical units.
time (UTC)temp
F
wind
direction
speed
MPH
gust
MPH
rain 1hr
in
rain 24hr
in
rain mn
in
humidity
%
barometer
mb
20190423000558 67 116 0.0 1.0 0.00 0.00 0.00 66 1021.2
20190423000057 67 115 0.0 1.0 0.00 0.00 0.00 65 1021.2
20190422235614 68 116 1.0 1.0 0.00 0.00 0.00 63 1021.2
20190422235055 69 115 0.0 1.0 0.00 0.00 0.00 62 1021.2
20190422234554 70 115 0.0 0.0 0.00 0.00 0.00 59 1021.2
20190422234053 70 115 0.0 0.0 0.00 0.00 0.00 56 1021.2
20190422233552 71 115 0.0 0.0 0.00 0.00 0.00 53 1021.2
20190422233051 73 115 0.0 0.0 0.00 0.00 0.00 51 1021.2
20190422232550 73 116 0.0 0.0 0.00 0.00 0.00 47 1021.2
20190422232049 74 115 0.0 1.0 0.00 0.00 0.00 45 1021.2
20190422231548 75 115 0.0 2.0 0.00 0.00 0.00 42 1021.2
20190422231047 76 117 0.0 2.0 0.00 0.00 0.00 40 1021.2
20190422230546 76 116 0.0 3.0 0.00 0.00 0.00 40 1021.2
20190422230045 76 188 1.0 3.0 0.00 0.00 0.00 41 1021.2
20190422225544 77 182 2.0 3.0 0.00 0.00 0.00 38 1021.2
20190422225043 77 217 2.0 3.0 0.00 0.00 0.00 35 1021.2
20190422224541 77 10 1.0 3.0 0.00 0.00 0.00 36 1021.2
20190422224040 77 48 2.0 3.0 0.00 0.00 0.00 36 1021.2
20190422223539 77 204 0.0 4.0 0.00 0.00 0.00 35 1021.5
20190422223038 77 271 1.0 4.0 0.00 0.00 0.00 36 1021.5
20190422222537 78 76 1.0 3.0 0.00 0.00 0.00 35 1021.5
20190422222036 78 113 1.0 3.0 0.00 0.00 0.00 36 1021.5
20190422221535 78 79 1.0 4.0 0.00 0.00 0.00 35 1021.5
20190422221035 79 104 2.0 4.0 0.00 0.00 0.00 35 1021.5
20190422220534 79 220 3.0 4.0 0.00 0.00 0.00 33 1021.5
20190422220033 79 118 1.0 3.0 0.00 0.00 0.00 31 1021.5
20190422215532 80 332 1.0 4.0 0.00 0.00 0.00 32 1021.5
20190422215031 80 207 2.0 4.0 0.00 0.00 0.00 33 1021.5
20190422214530 81 197 2.0 4.0 0.00 0.00 0.00 32 1021.5
20190422214029 80 155 2.0 4.0 0.00 0.00 0.00 37 1021.5
20190422213527 80 180 1.0 3.0 0.00 0.00 0.00 33 1021.5
20190422213027 80 219 0.0 2.0 0.00 0.00 0.00 33 1021.5
20190422212525 79 233 1.0 4.0 0.00 0.00 0.00 34 1021.8
20190422212024 79 11 2.0 5.0 0.00 0.00 0.00 35 1021.5
20190422211523 79 333 1.0 5.0 0.00 0.00 0.00 34 1021.8
20190422211022 80 313 1.0 5.0 0.00 0.00 0.00 34 1021.8
20190422210521 80 135 3.0 5.0 0.00 0.00 0.00 33 1021.8
20190422210020 80 184 3.0 5.0 0.00 0.00 0.00 34 1021.8
20190422205519 80 194 1.0 4.0 0.00 0.00 0.00 39 1021.8
20190422205018 80 179 2.0 4.0 0.00 0.00 0.00 36 1021.8
20190422204518 79 205 2.0 5.0 0.00 0.00 0.00 37 1021.8
20190422204016 79 147 3.0 5.0 0.00 0.00 0.00 33 1021.8
20190422203515 79 159 2.0 4.0 0.00 0.00 0.00 37 1022.2
20190422203013 79 144 2.0 4.0 0.00 0.00 0.00 37 1022.2
20190422202519 80 155 2.0 4.0 0.00 0.00 0.00 36 1022.2
20190422202011 80 210 1.0 4.0 0.00 0.00 0.00 33 1022.2
20190422201510 80 204 2.0 5.0 0.00 0.00 0.00 34 1022.2
20190422201008 80 203 2.0 5.0 0.00 0.00 0.00 37 1022.2
20190422200508 79 206 2.0 5.0 0.00 0.00 0.00 37 1022.2
20190422200007 78 170 2.0 6.0 0.00 0.00 0.00 35 1022.5
20190422195506 78 226 2.0 6.0 0.00 0.00 0.00 38 1022.5
20190422195005 78 287 1.0 7.0 0.00 0.00 0.00 37 1022.5
20190422194504 77 174 3.0 8.0 0.00 0.00 0.00 38 1022.9
20190422194003 77 221 2.0 9.0 0.00 0.00 0.00 40 1022.9
20190422193502 77 156 4.0 9.0 0.00 0.00 0.00 40 1022.9
20190422193001 77 149 3.0 8.0 0.00 0.00 0.00 38 1022.9
20190422192500 77 140 3.0 8.0 0.00 0.00 0.00 38 1022.9
20190422191959 78 154 5.0 8.0 0.00 0.00 0.00 35 1022.9
20190422191458 78 209 2.0 5.0 0.00 0.00 0.00 38 1022.9
20190422190957 77 203 2.0 6.0 0.00 0.00 0.00 36 1022.9
20190422190456 77 254 1.0 6.0 0.00 0.00 0.00 37 1023.2
20190422185955 76 167 2.0 6.0 0.00 0.00 0.00 38 1023.2
20190422185454 76 200 3.0 6.0 0.00 0.00 0.00 37 1023.2
20190422184953 76 152 3.0 6.0 0.00 0.00 0.00 38 1023.2
20190422184451 76 163 3.0 6.0 0.00 0.00 0.00 41 1023.2
20190422183950 75 193 2.0 6.0 0.00 0.00 0.00 45 1023.5
20190422183449 75 211 2.0 6.0 0.00 0.00 0.00 42 1023.5
20190422182948 75 144 5.0 8.0 0.00 0.00 0.00 41 1023.5
20190422182447 75 140 3.0 8.0 0.00 0.00 0.00 42 1023.5
20190422181946 75 149 2.0 7.0 0.00 0.00 0.00 43 1023.5
20190422181444 76 149 4.0 7.0 0.00 0.00 0.00 42 1023.5
20190422180944 75 163 3.0 5.0 0.00 0.00 0.00 45 1023.5
20190422180442 75 194 2.0 6.0 0.00 0.00 0.00 44 1023.5
20190422175941 74 181 2.0 6.0 0.00 0.00 0.00 47 1023.9
20190422175440 73 261 2.0 8.0 0.00 0.00 0.00 47 1023.9
20190422174939 73 178 4.0 8.0 0.00 0.00 0.00 47 1023.9
20190422174438 74 146 4.0 6.0 0.00 0.00 0.00 45 1023.9
20190422173937 74 154 4.0 6.0 0.00 0.00 0.00 47 1024.2
20190422173437 73 195 2.0 5.0 0.00 0.00 0.00 49 1024.2
20190422172936 72 203 3.0 5.0 0.00 0.00 0.00 48 1024.2
20190422172435 71 190 2.0 5.0 0.00 0.00 0.00 50 1024.2
20190422171934 71 151 3.0 6.0 0.00 0.00 0.00 46 1024.6
20190422171433 72 137 2.0 6.0 0.00 0.00 0.00 48 1024.6
20190422170932 72 169 4.0 6.0 0.00 0.00 0.00 49 1024.6
20190422170431 72 155 3.0 5.0 0.00 0.00 0.00 49 1024.6
20190422165930 71 199 2.0 5.0 0.00 0.00 0.00 48 1024.9
20190422165429 71 118 1.0 5.0 0.00 0.00 0.00 52 1024.9
20190422164928 71 162 2.0 6.0 0.00 0.00 0.00 50 1024.9
20190422164428 71 169 2.0 6.0 0.00 0.00 0.00 51 1025.2
20190422163927 70 162 3.0 6.0 0.00 0.00 0.00 51 1025.2
20190422163426 69 160 4.0 6.0 0.00 0.00 0.00 51 1025.2
20190422162925 69 163 3.0 8.0 0.00 0.00 0.00 54 1025.2
20190422162422 69 152 3.0 8.0 0.00 0.00 0.00 53 1025.2
20190422161921 70 157 4.0 6.0 0.00 0.00 0.00 51 1025.6
20190422161421 70 174 3.0 6.0 0.00 0.00 0.00 55 1025.6
20190422160920 70 177 3.0 6.0 0.00 0.00 0.00 55 1025.6
20190422160419 69 188 2.0 6.0 0.00 0.00 0.00 56 1025.6
20190422155918 69 240 2.0 4.0 0.00 0.00 0.00 54 1025.6
20190422155417 69 253 1.0 5.0 0.00 0.00 0.00 54 1025.6
20190422154916 68 312 1.0 5.0 0.00 0.00 0.00 54 1025.6
20190422154415 68 332 2.0 4.0 0.00 0.00 0.00 56 1025.9
20190422153914 68 218 1.0 3.0 0.00 0.00 0.00 56 1025.9
20190422153413 67 143 2.0 4.0 0.00 0.00 0.00 60 1025.9
20190422152912 67 255 2.0 4.0 0.00 0.00 0.00 62 1025.9
20190422152411 66 166 2.0 4.0 0.00 0.00 0.00 61 1025.9
20190422151911 66 214 2.0 3.0 0.00 0.00 0.00 62 1026.2
20190422151410 66 249 1.0 3.0 0.00 0.00 0.00 60 1026.2
20190422150909 66 304 2.0 3.0 0.00 0.00 0.00 59 1026.2
20190422150407 65 148 2.0 4.0 0.00 0.00 0.00 62 1026.2
20190422145906 66 244 2.0 4.0 0.00 0.00 0.00 60 1026.2
20190422145405 65 297 1.0 3.0 0.00 0.00 0.00 57 1026.2
20190422144904 65 298 1.0 3.0 0.00 0.00 0.00 56 1026.2
20190422144404 64 198 1.0 3.0 0.00 0.00 0.00 56 1026.2
20190422143902 63 290 1.0 3.0 0.00 0.00 0.00 62 1026.2
20190422143401 62 169 1.0 3.0 0.00 0.00 0.00 66 1026.2
20190422142900 62 137 1.0 5.0 0.00 0.00 0.00 68 1026.2
20190422142359 61 142 3.0 5.0 0.00 0.00 0.00 67 1026.2
20190422141857 61 133 2.0 4.0 0.00 0.00 0.00 68 1026.2
20190422141357 61 273 1.0 4.0 0.00 0.00 0.00 69 1026.2
20190422140855 61 25 1.0 6.0 0.00 0.00 0.00 67 1026.2
20190422140354 60 55 1.0 6.0 0.00 0.00 0.00 65 1026.2
20190422135853 61 27 2.0 5.0 0.00 0.00 0.00 64 1026.2
20190422135352 60 54 2.0 3.0 0.00 0.00 0.00 69 1026.2
20190422134851 59 236 1.0 5.0 0.00 0.00 0.00 70 1026.2
20190422134350 59 13 1.0 5.0 0.00 0.00 0.00 70 1026.2
20190422133848 59 352 0.0 0.0 0.00 0.00 0.00 72 1026.2
20190422133347 60 345 0.0 0.0 0.00 0.00 0.00 67 1026.2
20190422132847 61 278 0.0 0.0 0.00 0.00 0.00 68 1026.2
20190422132345 60 128 0.0 0.0 0.00 0.00 0.00 69 1026.2
20190422131844 59 97 0.0 0.0 0.00 0.00 0.00 72 1026.2
20190422131344 59 97 0.0 0.0 0.00 0.00 0.00 73 1026.2
20190422130842 58 98 0.0 0.0 0.00 0.00 0.00 75 1026.2
20190422130341 57 97 0.0 0.0 0.00 0.00 0.00 74 1026.2
20190422125841 56 71 0.0 0.0 0.00 0.00 0.00 77 1026.2
20190422125339 54 70 0.0 0.0 0.00 0.00 0.00 78 1026.2
20190422124838 53 71 0.0 0.0 0.00 0.00 0.00 81 1025.9
20190422124337 53 70 0.0 0.0 0.00 0.00 0.00 83 1025.9
20190422123836 51 72 0.0 0.0 0.00 0.00 0.00 89 1025.9
20190422123335 49 72 0.0 0.0 0.00 0.00 0.00 95 1025.9
20190422122834 47 72 0.0 0.0 0.00 0.00 0.00 95 1026.2
20190422122332 46 72 0.0 0.0 0.00 0.00 0.00 95 1026.2
20190422121831 45 72 0.0 0.0 0.00 0.00 0.00 95 1026.2
20190422121331 44 72 0.0 0.0 0.00 0.00 0.00 95 1025.9
20190422120830 44 72 0.0 0.0 0.00 0.00 0.00 95 1025.9
20190422120329 43 143 0.0 0.0 0.00 0.00 0.00 95 1025.9
20190422115828 43 143 0.0 0.0 0.00 0.00 0.00 95 1025.9
20190422115327 43 143 0.0 0.0 0.00 0.00 0.00 95 1025.9
20190422114825 43 143 0.0 0.0 0.00 0.00 0.00 95 1025.6
20190422114324 43 143 0.0 0.0 0.00 0.00 0.00 95 1025.6
20190422113823 43 143 0.0 0.0 0.00 0.00 0.00 95 1025.6
20190422113323 43 143 0.0 0.0 0.00 0.00 0.00 95 1025.6
20190422112822 43 143 0.0 0.0 0.00 0.00 0.00 95 1025.2
20190422112321 43 143 0.0 0.0 0.00 0.00 0.00 95 1025.2
20190422111820 43 143 0.0 0.0 0.00 0.00 0.00 95 1025.2
20190422111319 43 143 0.0 0.0 0.00 0.00 0.00 95 1024.9
20190422110818 42 143 0.0 0.0 0.00 0.00 0.00 95 1024.9
20190422110317 42 143 0.0 0.0 0.00 0.00 0.00 95 1024.9
20190422105816 43 143 0.0 0.0 0.00 0.00 0.00 95 1024.6
20190422105315 42 143 0.0 0.0 0.00 0.00 0.00 95 1024.6
20190422104814 42 144 0.0 0.0 0.00 0.00 0.00 95 1024.6
20190422104313 42 143 0.0 0.0 0.00 0.00 0.00 95 1024.6
20190422103812 42 143 0.0 0.0 0.00 0.00 0.00 95 1024.6
20190422103311 42 144 0.0 0.0 0.00 0.00 0.00 95 1024.6
20190422102810 42 143 0.0 0.0 0.00 0.00 0.00 95 1024.6
20190422102309 42 143 0.0 0.0 0.00 0.00 0.00 95 1024.2
20190422101808 42 143 0.0 0.0 0.00 0.00 0.00 95 1024.2
20190422101307 42 143 0.0 0.0 0.00 0.00 0.00 95 1024.2
20190422100806 42 143 0.0 0.0 0.00 0.00 0.00 95 1024.2
20190422100305 42 144 0.0 0.0 0.00 0.00 0.00 95 1024.2
20190422095804 42 143 0.0 0.0 0.00 0.00 0.00 94 1024.2
20190422095305 42 143 0.0 0.0 0.00 0.00 0.00 94 1024.2
20190422094802 42 144 0.0 0.0 0.00 0.00 0.00 94 1024.2
20190422094301 42 143 0.0 0.0 0.00 0.00 0.00 94 1024.2
20190422093800 42 143 0.0 0.0 0.00 0.00 0.00 94 1024.2
20190422093259 42 143 0.0 0.0 0.00 0.00 0.00 94 1024.2
20190422092759 42 143 0.0 0.0 0.00 0.00 0.00 94 1024.2
20190422092257 42 143 0.0 0.0 0.00 0.00 0.00 94 1024.2
20190422091255 42 143 0.0 0.0 0.00 0.00 0.00 93 1024.2
20190422090754 42 143 0.0 0.0 0.00 0.00 0.00 93 1023.9
20190422090253 42 143 0.0 0.0 0.00 0.00 0.00 93 1023.9
20190422085752 42 143 0.0 0.0 0.00 0.00 0.00 93 1023.9
20190422085251 42 143 0.0 0.0 0.00 0.00 0.00 93 1023.9
20190422084749 42 143 0.0 0.0 0.00 0.00 0.00 93 1023.9
20190422084249 42 143 0.0 0.0 0.00 0.00 0.00 93 1023.9
20190422083747 42 144 0.0 0.0 0.00 0.00 0.00 93 1024.2
20190422083246 42 143 0.0 0.0 0.00 0.00 0.00 92 1023.9
20190422082746 42 143 0.0 0.0 0.00 0.00 0.00 92 1023.9
20190422082245 42 144 0.0 0.0 0.00 0.00 0.00 92 1023.9
20190422081744 42 143 0.0 0.0 0.00 0.00 0.00 92 1023.9
20190422081243 42 143 0.0 0.0 0.00 0.00 0.00 92 1023.9
20190422080742 42 143 0.0 0.0 0.00 0.00 0.00 91 1023.9
20190422080240 42 143 0.0 0.0 0.00 0.00 0.00 91 1023.9
20190422075740 42 143 0.0 0.0 0.00 0.00 0.00 91 1023.9
20190422075239 42 143 0.0 0.0 0.00 0.00 0.00 91 1023.9
20190422074737 42 143 0.0 0.0 0.00 0.00 0.00 91 1023.9
20190422074236 42 143 0.0 0.0 0.00 0.00 0.00 91 1023.9
20190422073735 43 144 0.0 0.0 0.00 0.00 0.00 91 1023.9
20190422073234 43 143 0.0 0.0 0.00 0.00 0.00 91 1023.9
20190422072733 43 143 0.0 0.0 0.00 0.00 0.00 91 1023.5
20190422072232 43 143 0.0 0.0 0.00 0.00 0.00 90 1023.5
20190422071731 43 143 0.0 0.0 0.00 0.00 0.00 90 1023.5
20190422071230 43 143 0.0 0.0 0.00 0.00 0.00 90 1023.5
20190422070729 43 143 0.0 0.0 0.00 0.00 0.00 89 1023.5
20190422070229 43 143 0.0 0.0 0.00 0.00 0.00 89 1023.9
20190422065728 43 143 0.0 0.0 0.00 0.00 0.00 89 1023.9
20190422065227 43 144 0.0 0.0 0.00 0.00 0.00 90 1023.9
20190422064726 44 143 0.0 0.0 0.00 0.00 0.00 89 1023.9
20190422064225 44 143 0.0 0.0 0.00 0.00 0.00 89 1023.9
20190422063724 44 143 0.0 0.0 0.00 0.00 0.00 89 1023.5
20190422063223 44 143 0.0 0.0 0.00 0.00 0.00 89 1023.5
20190422062906 44 143 0.0 0.0 0.00 0.00 0.00 88 1023.5
20190422062222 44 143 0.0 0.0 0.00 0.00 0.00 88 1023.5
20190422061720 44 143 0.0 0.0 0.00 0.00 0.00 87 1023.9
20190422061220 44 143 0.0 0.0 0.00 0.00 0.00 87 1023.9
20190422060718 44 143 0.0 0.0 0.00 0.00 0.00 86 1023.9
20190422060217 44 144 0.0 0.0 0.00 0.00 0.00 87 1023.9
20190422055716 44 143 0.0 0.0 0.00 0.00 0.00 87 1023.9
20190422055215 45 143 0.0 0.0 0.00 0.00 0.00 86 1023.9
20190422054714 45 143 0.0 0.0 0.00 0.00 0.00 87 1023.9
20190422054212 45 143 0.0 0.0 0.00 0.00 0.00 87 1023.9
20190422053711 45 143 0.0 0.0 0.00 0.00 0.00 88 1023.9
20190422053210 45 143 0.0 0.0 0.00 0.00 0.00 88 1023.9
20190422052708 45 144 0.0 0.0 0.00 0.00 0.00 87 1023.9
20190422052207 45 144 0.0 0.0 0.00 0.00 0.00 87 1023.9
20190422051707 45 143 0.0 0.0 0.00 0.00 0.00 87 1023.9
20190422051205 45 143 0.0 0.0 0.00 0.00 0.00 87 1023.9
20190422050704 45 144 0.0 0.0 0.00 0.00 0.00 87 1023.9
20190422050204 45 143 0.0 0.0 0.00 0.00 0.00 86 1023.9
20190422045703 46 143 0.0 0.0 0.00 0.00 0.00 85 1023.9
20190422045202 46 143 0.0 0.0 0.00 0.00 0.00 84 1023.9
20190422044700 46 143 0.0 0.0 0.00 0.00 0.00 85 1023.9
20190422044159 46 143 0.0 0.0 0.00 0.00 0.00 85 1023.9
20190422043658 47 143 0.0 0.0 0.00 0.00 0.00 85 1023.9
20190422043157 47 143 0.0 0.0 0.00 0.00 0.00 84 1023.9
20190422042657 47 143 0.0 0.0 0.00 0.00 0.00 84 1023.9
20190422042156 47 143 0.0 0.0 0.00 0.00 0.00 84 1023.9
20190422041654 47 143 0.0 0.0 0.00 0.00 0.00 84 1023.9
20190422041153 47 143 0.0 0.0 0.00 0.00 0.00 84 1023.9
20190422040653 47 143 0.0 0.0 0.00 0.00 0.00 84 1023.9
20190422040152 47 143 0.0 0.0 0.00 0.00 0.00 84 1023.9
20190422035650 47 143 0.0 0.0 0.00 0.00 0.00 85 1023.9
20190422035149 47 143 0.0 0.0 0.00 0.00 0.00 84 1023.9
20190422034648 47 144 0.0 0.0 0.00 0.00 0.00 85 1023.9
20190422034147 47 143 0.0 0.0 0.00 0.00 0.00 83 1023.9
20190422033646 48 144 0.0 0.0 0.00 0.00 0.00 84 1023.9
20190422033145 48 143 0.0 0.0 0.00 0.00 0.00 83 1023.5
20190422032644 48 144 0.0 0.0 0.00 0.00 0.00 81 1023.5
20190422032143 48 144 0.0 0.0 0.00 0.00 0.00 81 1023.5
20190422031642 49 145 0.0 0.0 0.00 0.00 0.00 80 1023.5
20190422031140 49 144 0.0 0.0 0.00 0.00 0.00 79 1023.5
20190422030639 49 144 0.0 0.0 0.00 0.00 0.00 79 1023.5
20190422030138 49 144 0.0 0.0 0.00 0.00 0.00 78 1023.5
20190422025637 49 144 0.0 0.0 0.00 0.00 0.00 79 1023.5
20190422025137 49 145 0.0 0.0 0.00 0.00 0.00 78 1023.5
20190422024635 49 143 0.0 0.0 0.00 0.00 0.00 78 1023.5
20190422024134 49 143 0.0 0.0 0.00 0.00 0.00 79 1023.5
20190422023633 49 144 0.0 0.0 0.00 0.00 0.00 78 1023.5
20190422023132 49 143 0.0 0.0 0.00 0.00 0.00 79 1023.2
20190422022631 49 143 0.0 0.0 0.00 0.00 0.00 79 1023.2
20190422022130 49 146 0.0 0.0 0.00 0.00 0.00 78 1023.2
20190422021629 50 144 0.0 0.0 0.00 0.00 0.00 75 1023.2
20190422021128 50 143 0.0 0.0 0.00 0.00 0.00 76 1023.2
20190422020627 50 143 0.0 0.0 0.00 0.00 0.00 76 1023.2
20190422020126 50 145 0.0 0.0 0.00 0.00 0.00 75 1023.2
20190422015625 50 145 0.0 0.0 0.00 0.00 0.00 76 1023.2
20190422015125 50 150 0.0 0.0 0.00 0.00 0.00 74 1022.9
20190422014623 50 150 0.0 0.0 0.00 0.00 0.00 73 1022.9
20190422014122 51 150 0.0 0.0 0.00 0.00 0.00 72 1022.9
20190422013621 51 150 0.0 0.0 0.00 0.00 0.00 71 1022.9
20190422013120 51 150 0.0 0.0 0.00 0.00 0.00 72 1022.5
20190422012619 51 150 0.0 0.0 0.00 0.00 0.00 71 1022.5
20190422012118 52 150 0.0 0.0 0.00 0.00 0.00 70 1022.5
20190422011617 52 150 0.0 0.0 0.00 0.00 0.00 71 1022.5
20190422011116 52 30 0.0 0.0 0.00 0.00 0.00 67 1022.5
20190422010615 53 30 0.0 0.0 0.00 0.00 0.00 69 1022.5
20190422010114 53 30 0.0 0.0 0.00 0.00 0.00 68 1022.2
20190422005639 54 30 0.0 0.0 0.00 0.00 0.00 67 1022.2
20190422005112 54 30 0.0 0.0 0.00 0.00 0.00 65 1022.2
20190422004611 55 30 0.0 0.0 0.00 0.00 0.00 67 1022.2
20190422004110 55 30 0.0 0.0 0.00 0.00 0.00 66 1022.2
20190422003608 56 30 0.0 0.0 0.00 0.00 0.00 64 1022.2
20190422003108 56 30 0.0 0.0 0.00 0.00 0.00 63 1021.8
20190422002606 57 30 0.0 0.0 0.00 0.00 0.00 63 1021.8
20190422002106 58 30 0.0 0.0 0.00 0.00 0.00 60 1021.8
20190422001605 59 30 0.0 0.0 0.00 0.00 0.00 58 1021.8
20190422001104 59 30 0.0 0.0 0.00 0.00 0.00 56 1021.5